{"data":{"norad_id":62268,"epoch":"2026-05-25T04:21:00.374112Z","epoch_age_seconds":69821,"freshness":"FRESH","line1":"1 62268U 24237B   26145.18125433  .00228454  00000+0  17316-2 0  9991","line2":"2 62268  42.9994 315.4355 0001296  39.7385 320.3577 15.70891714 85038","mean_motion":15.70891714,"eccentricity":0.0001296,"inclination_deg":42.9994,"raan_deg":315.4355,"arg_perigee_deg":39.7385,"mean_anomaly_deg":320.3577,"bstar":0.0017316,"rev_number":8503,"period_min":91.667680666116,"perigee_km":355.47446817328,"apogee_km":357.22004649278,"semimajor_km":6734.484257333,"source":"CELESTRAK","updated_at":"2026-05-25T13:38:19.640895Z"}}